This demonstration page uses our WeatherBlox Daily Observations layout. Learn more.

Left ArrowRight Arrow

Hourly Observations for April 10, 2017

Temp ( °F °C ) Dew Point ( °F °C ) Humidity (%) Winds ( mph kmh ) Pressure ( in mb ) Visibility ( mi km ) Precip ( " mm )
12:15 am 00:15 Clear 57 14 36 2 44 44 N N/A 30.15 1021 10 16 N/A
12:35 am 00:35 Clear 55 13 36 2 47 47 S 5 7 30.15 1021 10 16 N/A
12:55 am 00:55 Clear 55 13 37 3 51 51 S 3 6 30.15 1021 10 16 N/A
1:15 am 01:15 Clear 55 13 37 3 51 51 S 3 6 30.15 1021 10 16 N/A
1:35 am 01:35 Clear 55 13 37 3 51 51 S 3 6 30.15 1021 10 16 N/A
1:55 am 01:55 Clear 54 12 37 3 54 54 N N/A 30.15 1021 10 16 N/A
2:15 am 02:15 Clear 54 12 37 3 54 54 N N/A 30.15 1021 10 16 N/A
2:35 am 02:35 Clear 54 12 37 3 54 54 S 3 6 30.15 1021 10 16 N/A
3:00 am 03:00 Clear 52 11 37 3 58 58 SSE 6 9 30.15 1021 10 16 N/A
3:15 am 03:15 Clear 52 11 37 3 58 58 S 6 9 30.15 1021 10 16 N/A
3:35 am 03:35 Clear 48 9 39 4 71 71 N N/A 30.18 1022 10 16 N/A
3:55 am 03:55 Clear 46 8 39 4 76 76 N N/A 30.18 1022 10 16 N/A
4:15 am 04:15 Clear 46 8 39 4 76 76 N N/A 30.18 1022 10 16 N/A
4:35 am 04:35 Clear 45 7 37 3 76 76 N N/A 30.18 1022 10 16 N/A
4:55 am 04:55 Clear 45 7 39 4 81 81 N N/A 30.18 1022 10 16 N/A
5:15 am 05:15 Clear 46 8 39 4 76 76 N N/A 30.21 1023 10 16 N/A
5:35 am 05:35 Clear 46 8 39 4 76 76 SSE 3 6 30.21 1023 10 16 N/A
5:55 am 05:55 Clear 43 6 41 5 93 93 N N/A 30.21 1023 10 16 N/A
6:15 am 06:15 Clear 45 7 41 5 87 87 N N/A 30.21 1023 10 16 N/A
6:35 am 06:35 Clear 46 8 39 4 76 76 SSE 5 7 30.21 1023 10 16 N/A
6:55 am 06:55 Sunny 43 6 37 3 81 81 N N/A 30.24 1024 10 16 N/A
7:15 am 07:15 Sunny 45 7 39 4 81 81 N N/A 30.24 1024 10 16 N/A
7:35 am 07:35 Sunny 46 8 41 5 82 82 N N/A 30.24 1024 10 16 N/A
7:55 am 07:55 Sunny 50 10 43 6 76 76 N N/A 30.24 1024 10 16 N/A
8:15 am 08:15 Sunny 52 11 41 5 67 67 N N/A 30.24 1024 10 16 N/A
8:35 am 08:35 Sunny 54 12 41 5 63 63 N N/A 30.24 1024 10 16 N/A
8:55 am 08:55 Sunny 55 13 41 5 59 59 N N/A 30.24 1024 10 16 N/A
9:15 am 09:15 Sunny 57 14 41 5 55 55 S 3 6 30.21 1023 10 16 N/A
9:35 am 09:35 Sunny 59 15 41 5 51 51 SSW 5 7 30.21 1023 10 16 N/A
9:55 am 09:55 Sunny 61 16 41 5 48 48 N N/A 30.21 1023 10 16 N/A
10:15 am 10:15 Sunny 63 17 41 5 45 45 S 5 7 30.21 1023 10 16 N/A
10:35 am 10:35 Sunny 66 19 43 6 43 43 SSE 3 6 30.21 1023 10 16 N/A
10:55 am 10:55 Sunny 68 20 43 6 40 40 S 3 6 30.21 1023 10 16 N/A
11:15 am 11:15 Sunny 70 21 43 6 38 38 S 5 7 30.21 1023 10 16 N/A
11:35 am 11:35 Sunny 73 23 45 7 36 36 SSE 6 9 30.21 1023 10 16 N/A
11:55 am 11:55 Sunny 73 23 45 7 36 36 SSW 8 13 30.21 1023 10 16 N/A
12:15 pm 12:15 Sunny 77 25 45 7 32 32 S 9 15 30.18 1022 10 16 N/A
12:35 pm 12:35 Sunny 77 25 45 7 32 32 S 10 17 30.18 1022 10 16 N/A
12:55 pm 12:55 Sunny 79 26 45 7 30 30 SSE 7 11 30.18 1022 10 16 N/A
1:15 pm 13:15 Sunny 79 26 45 7 30 30 SSW 7 11 30.15 1021 10 16 N/A
1:35 pm 13:35 Sunny 81 27 45 7 28 28 SSW 13 20 30.15 1021 10 16 N/A
1:55 pm 13:55 Sunny 81 27 45 7 28 28 SSW 12 19 30.15 1021 10 16 N/A
2:15 pm 14:15 Sunny 82 28 45 7 26 26 S 10 17 30.15 1021 10 16 N/A
2:35 pm 14:35 Sunny 82 28 45 7 26 26 SSW 13 20 30.12 1020 10 16 N/A
2:55 pm 14:55 Sunny 82 28 46 8 28 28 SSW 13 20 30.12 1020 10 16 N/A
3:15 pm 15:15 Sunny 82 28 45 7 26 26 S 15 24 30.12 1020 10 16 N/A
3:35 pm 15:35 Sunny 82 28 45 7 26 26 S 13 20 30.12 1020 10 16 N/A
3:55 pm 15:55 Sunny 82 28 46 8 28 28 S 12 19 30.12 1020 10 16 N/A
4:15 pm 16:15 Sunny 82 28 45 7 26 26 S 14 22 30.12 1020 10 16 N/A
4:35 pm 16:35 Sunny 81 27 45 7 28 28 S 13 20 30.12 1020 10 16 N/A
4:55 pm 16:55 Sunny 81 27 45 7 28 28 SSW 12 19 30.12 1020 10 16 N/A
5:15 pm 17:15 Sunny 82 28 46 8 28 28 SSW 7 11 30.12 1020 10 16 N/A
5:35 pm 17:35 Sunny 81 27 46 8 30 30 S 9 15 30.09 1019 10 16 N/A
5:55 pm 17:55 Sunny 81 27 45 7 28 28 S 9 15 30.09 1019 10 16 N/A
6:15 pm 18:15 Sunny 81 27 46 8 30 30 SSW 9 15 30.09 1019 10 16 N/A
6:35 pm 18:35 Sunny 79 26 46 8 32 32 SSW 10 17 30.09 1019 10 16 N/A
6:55 pm 18:55 Sunny 79 26 46 8 32 32 S 9 15 30.09 1019 10 16 N/A
7:15 pm 19:15 Sunny 79 26 46 8 32 32 S 10 17 30.09 1019 10 16 N/A
7:35 pm 19:35 Sunny 77 25 46 8 34 34 S 9 15 30.09 1019 10 16 N/A
7:55 pm 19:55 Clear 75 24 45 7 34 34 S 8 13 30.09 1019 10 16 N/A
8:15 pm 20:15 Clear 73 23 45 7 36 36 S 9 15 30.12 1020 10 16 N/A
8:35 pm 20:35 Clear 73 23 46 8 38 38 S 9 15 30.12 1020 10 16 N/A
8:55 pm 20:55 Clear 73 23 46 8 38 38 SSW 8 13 30.12 1020 10 16 N/A
9:15 pm 21:15 Clear 72 22 46 8 41 41 S 7 11 30.12 1020 10 16 N/A
9:35 pm 21:35 Clear 72 22 46 8 41 41 SSW 8 13 30.15 1021 10 16 N/A
9:55 pm 21:55 Clear 72 22 46 8 41 41 S 8 13 30.15 1021 10 16 N/A
10:15 pm 22:15 Clear 70 21 46 8 43 43 SSW 8 13 30.15 1021 10 16 N/A
10:35 pm 22:35 Clear 70 21 46 8 43 43 SSW 10 17 30.15 1021 10 16 N/A
10:55 pm 22:55 Clear 70 21 46 8 43 43 SSW 9 15 30.15 1021 10 16 N/A
11:15 pm 23:15 Clear 70 21 46 8 43 43 SSW 12 19 30.15 1021 10 16 N/A
11:35 pm 23:35 Clear 68 20 46 8 46 46 SW 7 11 30.15 1021 10 16 N/A
11:55 pm 23:55 Clear 68 20 46 8 46 46 SSW 7 11 30.15 1021 10 16 N/A

Powered by AerisWeather